Location: Mountain Grove
(34.0887°N, 86.6172°W)
Time: 21:54:49
(UTC+00:00)

ERBS - Pass Details

Date: 14 July 2020
Orbit: 408 x 426 km, 57.0° (Epoch: 08 August)

Event Time Altitude Azimuth Distance (km) Brightness Sun altitude
Exits shadow 08:58:52 50° 156° (SSE) 527 2.5 -18.8°
Maximum altitude 08:59:15 54° 126° (SE) 501 2.6 -18.8°
Drops below altitude 10° 09:02:27 10° 48° (NE) 1,472 6.3 -18.3°
Sets 09:04:33 0° 44° (NE) 2,335 7.8 -18.0°
